Regional Weather Roundup
Issued by NWS

Home | Current Version | Previous Version | Graphics & Text | Print | Product List | Glossary On
Versions: 1 2 3 4 5 6 7 8 9 10 11 12 13 14 15 16 17 18 19 20 21 22 23 24 25 26 27 28 29 30 31 32 33 34 35 36 37 38 39 40 41 42 43 44 45 46 47 48 49 50
787
ASUS43 KMKX 201400
RWRWI

WISCONSIN REGIONAL WEATHER ROUNDUP
NATIONAL WEATHER SERVICE MILWAUKEE/SULLIVAN WI
900 AM CDT WED SEP 20 2017

NOTE: "FAIR" INDICATES FEW OR NO CLOUDS BELOW 12,000 FEET WITH NO
SIGNIFICANT WEATHER AND/OR OBSTRUCTIONS TO VISIBILITY.

WIZ001-002-006>008-014>016-023>028-201500-
NORTHWEST WISCONSIN

CITY           SKY/WX    TMP DP  RH WIND       PRES   REMARKS
SUPERIOR ARPT  RAIN      64  63  97 SE5       29.65S
ASHLAND        CLOUDY    65  62  90 S10       29.69F
HAYWARD        CLOUDY    65  62  90 SE10G20   29.70S
SIREN          CLOUDY    69  65  88 S9        29.67R
CUMBERLAND     CLOUDY    64  63  94 SE9G17    29.69S
RICE LAKE      CLOUDY    66  63  90 SE13      29.71S
CHETEK         CLOUDY    65  64  94 SE17G25   29.71S
LADYSMITH      CLOUDY    65  63  91 SE12      29.75F
EAU CLAIRE     NOT AVBL
MENOMONIE      CLOUDY    67  66  98 SE12      29.69S
NEW RICHMOND   CLOUDY    70  64  80 S7        29.68R
OSCEOLA        CLOUDY    71  65  81 SE10      29.68S
$$

WIZ003>005-009-010-017-018-201500-
NORTH CENTRAL WISCONSIN

CITY           SKY/WX    TMP DP  RH WIND       PRES   REMARKS
MANITOWISH WTR CLOUDY    60  60 100 SE8       29.81F
ARBOR VITAE    CLOUDY    62  60  94 SE8       29.82F
WOODRUFF       CLOUDY    62  60  94 SE8       29.82F
RHINELANDER    LGT RAIN  61  61 100 SE10      29.86F
EAGLE RIVER    LGT RAIN  61  60  97 SE8       29.87R
LAND O LAKES   LGT RAIN  61  59  92 SE10      29.87F
PHILLIPS       CLOUDY    63  63 100 SE8       29.77S
TOMAHAWK         N/A     60  59  96 E3        29.84F FOG
MEDFORD        CLOUDY    62  61  96 SE8       29.80F FOG
MERRILL        NOT AVBL
$$

WIZ029-030-035-036-043>047-201500-
CENTRAL WISCONSIN

CITY           SKY/WX    TMP DP  RH WIND       PRES   REMARKS
WAUSAU         CLOUDY    64  62  93 SE7       29.83S FOG
MOSINEE        NOT AVBL
MARSHFIELD     CLOUDY    64  61  90 SE10      29.80S FOG
STEVENS POINT  LGT RAIN  63  63 100 S6        29.84R
WAUPACA        CLOUDY    67  66  97 SE7       29.84S FOG
WAUTOMA        PTSUNNY   68  64  87 SE10      29.84S
WISC RAPIDS    CLOUDY    67  63  87 S9        29.82S
CAMP DOUGLAS   NOT AVBL
$$

WIZ011>013-019>022-031-037>040-048>050-201500-
NORTHEAST WISCONSIN

CITY           SKY/WX    TMP DP  RH WIND       PRES   REMARKS
ANTIGO         LGT RAIN  59  59 100 CALM      29.91R
SHAWANO        CLOUDY    66  64  91 SE7       29.87S FOG
OCONTO         CLOUDY    64  63  95 SE8       29.89F
STURGEON BAY   CLOUDY    65  64  97 SE10      29.92S FOG
GREEN BAY      CLOUDY    68  66  93 SE10      29.88S FOG
MANITOWOC      CLOUDY    67  65  93 SE15      29.91F FOG
APPLETON       PTSUNNY   66  64  94 SE13G20   29.85F
CLINTONVILLE   CLOUDY    63  63 100 SE7       29.85F FOG
OSHKOSH        CLOUDY    69  65  86 SE12      29.86R
$$

WIZ032>034-041-042-053>061-201500-
SOUTHWEST WISCONSIN

CITY           SKY/WX    TMP DP  RH WIND       PRES   REMARKS
LA CROSSE      CLOUDY    74  65  73 S14       29.74S
SPARTA         SUNNY     68  64  86 S10G18    29.78S
VIROQUA        CLOUDY    68  66  92 SE10G16   29.80S
BOSCOBEL       SUNNY     74  65  73 VRB3      29.80S
PRAIRIE DU CHI SUNNY     71  63  76 E5        29.78F
PLATTEVILLE    MOSUNNY   69  68  96 S9        29.83R
$$

WIZ056-057-062-063-064-067-068-201500-
SOUTH CENTRAL WISCONSIN

CITY           SKY/WX    TMP DP  RH WIND       PRES   REMARKS
REEDSBURG      PTSUNNY   68  65  91 S9        29.82S
BARABOO/DELLS  MOSUNNY   68  62  79 S14       29.82S
LONE ROCK      NOT AVBL
MINERAL POINT  CLOUDY    68  68 100 SE12G20   29.84S
MADISON        CLOUDY    71  64  78 S14       29.85R
MIDDLETON      CLOUDY    72  65  79 SE6       29.86R
WATERTOWN      CLOUDY    68  67  96 SE10      29.86F
MONROE         MOSUNNY   68  63  83 S13       29.85S
JANESVILLE     PTSUNNY   73  64  73 S14       29.86S
$$

WIZ051-052-058>065-066-070>072-201500-
SOUTHEAST WISCONSIN

CITY           SKY/WX    TMP DP  RH WIND       PRES   REMARKS
MILWAUKEE      CLOUDY    69  68  96 SE14      29.90F FOG
WAUKESHA       MOSUNNY   66  64  94 SE9       29.91F
MILWAUKEE/TIMM CLOUDY    66  64  94 SE7       29.91F FOG
RACINE         CLOUDY    70  69  97 SE12      29.93F FOG
BURLINGTON     SUNNY     67  67 100 SE7       29.90S FOG
KENOSHA        SUNNY     71  67  87 SE10      29.92S FOG
FOND DU LAC    CLOUDY    69  63  81 SE9G17    29.86F
SHEBOYGAN      CLOUDY    67  67 100 SE9       29.91S FOG
WEST BEND        N/A     64  64 100 SE8       29.90F FOG
JUNEAU         CLOUDY    67  64  91 SE12      29.87F
$$

LSZ147-162-201500-
LAKE SUPERIOR

STATION/POSITION TIME  TEMP    WIND        PRES    WAVE
                       AIR SEA DIR/SP/G            HT/PER
                 (UTC) (F)     (DEG/KT/KT) (MB)    (FT/S)
W MID LAKE BUOY  1250   60 54  140/ 17/ 19 1007.0S   3/ 4
DEVILS ISLAND    1300   63     150/ 12/ 18 1005.6F
PORT WING        1340   65     140/  6/ 14 1004.7S
SAXON HARBOR     1330   66     190/  7/ 19 1005.1F
$$

LMZ867-665-643>646-201500-
LAKE MICHIGAN

STATION/POSITION TIME  TEMP    WIND        PRES    WAVE
                       AIR SEA DIR/SP/G            HT/PER
                 (UTC) (F)     (DEG/KT/KT) (MB)    (FT/S)
S GREEN BAY BUOY 1330   65 66  150/ 14/ 17 1012.0R
N MID LAKE BUOY  1250   65 64  150/ 12/ 14 1014.3F   2/ 3
NORTHPORT PIER   1340   65     150/ 12/ 15 1013.5R
KEWAUNEE LAKESHO 1330   61     150/  8/ 10 1012.5R
SHEBOYGAN LAKESH 1300   65     150/ 15/ 15 1012.6F
PORT WASHINGTON  1340   69     150/ 11/ 14 1013.9S
ATWATER BUOY     1209   68 68  150/ 12/ 14 1013.2S
MILWAUKEE LAKESH 1330   68     140/ 14/ 15   N/A
S MID LAKE BUOY  1250   68 68  110/ 12/ 12 1013.9S   1
KENOSHA   LAKESH 1300   68     150/ 11/ 12 1013.2
$$

TC  - TEMPERATURE IN CELSIUS
VSB - VISIBILITY IN STATUTE MILES
WCI - WIND CHILL INDEX
HX  - HEAT INDEX





USA.gov is the U.S. government's official web portal to all federal, state and local government web resources and services.